When you browse on this site, cookies collect data to enhance your experience and personalize the content and advertising you see.
Visit our Privacy Policy to learn more. By continuing to use the site, you agree to this use of cookies and data.
  • In Portugal
  • List of Countries
  • For 7 days
  • Water Temperature
  • Satellite Maps
  • Weather Map
  • Weather Widgets
  • user-avatar
    Login

    Hourly Weather Maloe Maksimkino

    Today, 16 February, Saturday

    Time Temperature Precipitation Wind Pressure Humidity
    00:00 -4°C° 0.2 mm 5 mps 744 mmHg 94%
    01:00 -2°C° 0.1 mm 4 mps 744 mmHg 93%
    02:00 -2°C° 0.1 mm 4 mps 744 mmHg 93%
    03:00 -1°C° 0.1 mm 4 mps 743 mmHg 93%
    04:00 -1°C° 0.1 mm 4 mps 743 mmHg 93%
    05:00 -1°C° 0.1 mm 4 mps 743 mmHg 93%
    06:00 -1°C° 0.1 mm 4 mps 743 mmHg 93%
    07:00 -1°C° 0 mm 4 mps 743 mmHg 93%
    08:00 -1°C° 0 mm 4 mps 744 mmHg 93%
    09:00 -1°C° 0 mm 4 mps 744 mmHg 92%
    10:00 0°C° 0 mm 3 mps 744 mmHg 95%
    11:00 0°C° 0 mm 3 mps 744 mmHg 97%
    12:00 0°C° 0 mm 3 mps 744 mmHg 99%
    13:00 0°C° 0.2 mm 3 mps 744 mmHg 99%
    14:00 +1°C° 0.2 mm 2 mps 744 mmHg 99%
    15:00 +1°C° 0.2 mm 2 mps 744 mmHg 98%
    16:00 -1°C° 0.1 mm 2 mps 744 mmHg 98%
    17:00 -1°C° 0.1 mm 2 mps 745 mmHg 97%
    18:00 -2°C° 0.1 mm 2 mps 745 mmHg 96%
    19:00 -2°C° 0 mm 2 mps 745 mmHg 96%
    20:00 -1°C° 0 mm 2 mps 745 mmHg 96%
    21:00 -1°C° 0 mm 2 mps 745 mmHg 96%
    22:00 -1°C° 0 mm 2 mps 746 mmHg 96%
    23:00 -1°C° 0 mm 3 mps 746 mmHg 95%

    Tomorrow, 17 February, Sunday

    Time Temperature Precipitation Wind Pressure Humidity
    00:00 -1°C° 0 mm 3 mps 746 mmHg 95%
    01:00 -2°C° 0 mm 3 mps 746 mmHg 95%
    02:00 -4°C° 0 mm 3 mps 746 mmHg 95%
    03:00 -5°C° 0 mm 3 mps 746 mmHg 96%
    04:00 -5°C° 0 mm 2 mps 746 mmHg 96%
    05:00 -5°C° 0 mm 2 mps 746 mmHg 97%
    06:00 -5°C° 0 mm 2 mps 745 mmHg 97%
    07:00 -6°C° 0 mm 3 mps 745 mmHg 96%
    08:00 -6°C° 0 mm 3 mps 745 mmHg 96%
    09:00 -6°C° 0 mm 3 mps 744 mmHg 95%
    10:00 -7°C° 0 mm 4 mps 744 mmHg 94%
    11:00 -7°C° 0 mm 4 mps 743 mmHg 93%
    12:00 -6°C° 0 mm 5 mps 742 mmHg 92%
    13:00 -6°C° 0 mm 5 mps 741 mmHg 92%
    14:00 -6°C° 0 mm 5 mps 740 mmHg 91%
    15:00 -6°C° 0 mm 5 mps 739 mmHg 90%
    16:00 -6°C° 0.2 mm 5 mps 738 mmHg 91%
    17:00 -6°C° 0.2 mm 5 mps 738 mmHg 92%
    18:00 -6°C° 0.2 mm 5 mps 737 mmHg 93%
    19:00 -5°C° 0.4 mm 5 mps 736 mmHg 93%
    20:00 -5°C° 0.4 mm 5 mps 736 mmHg 93%
    21:00 -4°C° 0.4 mm 5 mps 735 mmHg 94%
    22:00 -4°C° 0.1 mm 4 mps 735 mmHg 92%
    23:00 -4°C° 0.1 mm 4 mps 734 mmHg 90%

    Day after tomorrow, 18 February, Monday

    Time Temperature Precipitation Wind Pressure Humidity
    00:00 -4°C° 0.1 mm 3 mps 734 mmHg 88%
    01:00 -5°C° 0 mm 3 mps 734 mmHg 90%
    02:00 -6°C° 0 mm 3 mps 734 mmHg 91%
    03:00 -7°C° 0 mm 3 mps 734 mmHg 93%
    04:00 -8°C° 0 mm 3 mps 733 mmHg 94%
    05:00 -8°C° 0 mm 3 mps 733 mmHg 95%
    06:00 -8°C° 0 mm 2 mps 733 mmHg 96%
    07:00 -7°C° 0.1 mm 2 mps 733 mmHg 96%
    08:00 -5°C° 0.1 mm 2 mps 734 mmHg 95%
    09:00 -4°C° 0.1 mm 2 mps 734 mmHg 95%
    10:00 -4°C° 0.2 mm 3 mps 734 mmHg 94%
    11:00 -2°C° 0.2 mm 3 mps 735 mmHg 92%
    12:00 -3°C° 0.2 mm 4 mps 735 mmHg 91%
    13:00 -4°C° 0.1 mm 5 mps 736 mmHg 89%
    14:00 -4°C° 0.1 mm 5 mps 737 mmHg 88%
    15:00 -5°C° 0.1 mm 6 mps 737 mmHg 86%
    16:00 -5°C° 0.1 mm 6 mps 739 mmHg 87%
    17:00 -5°C° 0.1 mm 6 mps 740 mmHg 88%
    18:00 -6°C° 0.1 mm 7 mps 741 mmHg 88%
    19:00 -7°C° 0.1 mm 8 mps 742 mmHg 86%
    20:00 -8°C° 0.1 mm 8 mps 743 mmHg 84%
    21:00 -9°C° 0.1 mm 9 mps 744 mmHg 82%
    22:00 -10°C° 0 mm 9 mps 745 mmHg 82%
    23:00 -11°C° 0 mm 9 mps 746 mmHg 83%

    19 February, Tuesday

    Time Temperature Precipitation Wind Pressure Humidity
    00:00 -12°C° 0 mm 8 mps 747 mmHg 83%
    01:00 -15°C° 0 mm 8 mps 748 mmHg 82%
    02:00 -16°C° 0 mm 8 mps 749 mmHg 81%
    03:00 -17°C° 0 mm 7 mps 751 mmHg 80%
    04:00 -17°C° 0 mm 7 mps 752 mmHg 80%
    05:00 -17°C° 0 mm 6 mps 753 mmHg 81%
    06:00 -18°C° 0 mm 6 mps 754 mmHg 81%
    07:00 -17°C° 0 mm 5 mps 754 mmHg 83%
    08:00 -17°C° 0 mm 5 mps 755 mmHg 84%
    09:00 -16°C° 0 mm 4 mps 756 mmHg 85%
    10:00 -15°C° 0 mm 4 mps 756 mmHg 85%
    11:00 -14°C° 0 mm 4 mps 756 mmHg 86%
    12:00 -12°C° 0 mm 3 mps 756 mmHg 86%
    13:00 -10°C° 0 mm 3 mps 755 mmHg 85%
    14:00 -11°C° 0 mm 4 mps 755 mmHg 84%
    15:00 -10°C° 0 mm 4 mps 755 mmHg 83%
    16:00 -10°C° 0.1 mm 4 mps 754 mmHg 84%
    17:00 -9°C° 0.1 mm 4 mps 754 mmHg 85%
    18:00 -10°C° 0.1 mm 5 mps 754 mmHg 87%
    19:00 -9°C° 0 mm 4 mps 753 mmHg 86%
    20:00 -9°C° 0 mm 4 mps 753 mmHg 85%
    21:00 -9°C° 0 mm 4 mps 753 mmHg 84%
    22:00 -9°C° 0 mm 4 mps 753 mmHg 85%
    23:00 -9°C° 0 mm 4 mps 752 mmHg 87%

    20 February, Wednesday

    Time Temperature Precipitation Wind Pressure Humidity
    00:00 -9°C° 0 mm 4 mps 752 mmHg 88%
    01:00 -10°C° 0 mm 4 mps 752 mmHg 88%
    02:00 -10°C° 0 mm 4 mps 752 mmHg 89%
    03:00 -11°C° 0 mm 4 mps 752 mmHg 89%
    04:00 -11°C° 0 mm 4 mps 752 mmHg 89%
    05:00 -11°C° 0 mm 4 mps 751 mmHg 89%
    06:00 -11°C° 0 mm 4 mps 751 mmHg 89%
    07:00 -10°C° 0 mm 4 mps 751 mmHg 87%
    08:00 -10°C° 0 mm 5 mps 751 mmHg 86%
    09:00 -10°C° 0 mm 5 mps 751 mmHg 85%
    10:00 -8°C° 0 mm 5 mps 751 mmHg 84%
    11:00 -7°C° 0 mm 5 mps 751 mmHg 83%
    12:00 -7°C° 0 mm 5 mps 751 mmHg 82%
    13:00 -6°C° 0 mm 5 mps 750 mmHg 82%
    14:00 -6°C° 0 mm 5 mps 750 mmHg 82%
    15:00 -6°C° 0 mm 5 mps 750 mmHg 82%
    16:00 -7°C° 0 mm 5 mps 749 mmHg 82%
    17:00 -7°C° 0 mm 5 mps 749 mmHg 83%
    18:00 -9°C° 0 mm 6 mps 749 mmHg 83%
    19:00 -9°C° 0 mm 6 mps 749 mmHg 84%
    20:00 -10°C° 0 mm 6 mps 748 mmHg 85%
    21:00 -10°C° 0 mm 6 mps 748 mmHg 86%
    22:00 -10°C° 0 mm 6 mps 747 mmHg 87%
    23:00 -10°C° 0 mm 6 mps 747 mmHg 89%

    21 February, Thursday

    Time Temperature Precipitation Wind Pressure Humidity
    00:00 -11°C° 0 mm 7 mps 746 mmHg 90%
    01:00 -9°C° 0.3 mm 7 mps 746 mmHg 90%
    02:00 -9°C° 0.3 mm 7 mps 745 mmHg 90%
    03:00 -9°C° 0.3 mm 7 mps 745 mmHg 91%
    04:00 -8°C° 0.1 mm 7 mps 745 mmHg 90%
    05:00 -7°C° 0.1 mm 7 mps 744 mmHg 90%
    06:00 -7°C° 0.1 mm 7 mps 744 mmHg 90%
    07:00 -7°C° 0.1 mm 7 mps 744 mmHg 90%
    08:00 -6°C° 0.1 mm 7 mps 744 mmHg 91%
    09:00 -6°C° 0.1 mm 7 mps 744 mmHg 91%
    10:00 -4°C° 0.2 mm 7 mps 744 mmHg 91%
    11:00 -4°C° 0.2 mm 7 mps 743 mmHg 91%
    12:00 -3°C° 0.2 mm 7 mps 743 mmHg 91%
    13:00 -3°C° 0.2 mm 6 mps 743 mmHg 90%
    14:00 -2°C° 0.2 mm 6 mps 743 mmHg 90%
    15:00 -2°C° 0.2 mm 6 mps 742 mmHg 90%
    16:00 -2°C° 0.3 mm 6 mps 742 mmHg 89%
    17:00 -2°C° 0.3 mm 5 mps 742 mmHg 89%
    18:00 -2°C° 0.3 mm 5 mps 743 mmHg 89%
    19:00 -3°C° 0 mm 4 mps 742 mmHg 90%
    20:00 -4°C° 0 mm 4 mps 742 mmHg 92%
    21:00 -5°C° 0 mm 3 mps 742 mmHg 93%
    22:00 -6°C° 0 mm 3 mps 742 mmHg 94%
    23:00 -7°C° 0 mm 3 mps 742 mmHg 94%
    Show more